STARLINK-11247, 60720

Orbit data source: Space-Track

STARLINK-11247, 60720 is a payload satellite owned by SpaceX/Seattle (US) in LEO that was launched on Wed, 28 Aug 2024 UTC via an FALCON 9 launch vehicle from the Air Force Eastern Test Range (AFETR). Payload-class satellites include a variety of spacecraft equipped with specific instruments for various scientific and technological missions. These include communications satellites like Starlink; space stations such as the ISS; scientific satellites like the Hubble; Earth observation satellites from companies like Planet Labs, Umbra, and HawkEye 360; GPS; miniature CubeSats for education and research; and military/defense satellites.

Loading next visibility...
Identifier
60720, 2024-152A
Orbit
LEO
Country
Flag of USUS
Related business
Manufacturer
SpaceX/Seattle
Mission
Operational Commercial Communications
Bus & Motor
STARLINK V2MD, Unknown motor
Mass
960 kg wet, ~910 kg dry
Launch date (UTC)
2024-08-28 (1 year ago)
Launch vehicle
FALCON 9
Launch site
Air Force Eastern Test Range (AFETR)
Object type
Payload
Rocket body
Debris
Shape & HBR
Box + 2 Pan, 18.1 m
Radar Cross Section
36.964 m², Large (>1 m²)

Expand to show TLE details & history
Last TLE update: 13 hours ago

TLE from 13 hours ago
0 STARLINK-11247
1 60720U 24152A   25340.94183180  .00004323  00000-0  40546-4 0  9992
2 60720  53.1578 213.7906 0000818 123.5615 236.5481 15.69690783 74266
Epoch: 2025-12-06T22:36Z
TLE epoch observation values (Epoch: 2025-12-06T22:36:14.267Z)
Latitude
-0.00003°
Longitude
158.76879°
Altitude
361 km
Speed
7.694 km/s
True Right ascension
14h 15m 09s
True Declination
0° 00' 00"
Sunlit
Object was in daylight at epoch
Visualization orbit readout
Latitude
Unknown
Longitude
Unknown
Altitude
Unknown
Speed
Unknown
Apparent Right ascension
Unknown
Apparent Declination
Unknown
Sunlit
N/A
Visualization observer readout
Local Sidereal Time
09:46:25
Azimuth
Unknown
Elevation
Unknown
Doppler factor
Unknown
Orbital elements
Apogee altitude
360.594 km
Perigee altitude
359.492 km
Semi-major axis
6,738.18 km
Eccentricity
0.00008
Inclination
53.1578°
RAAN
213.7906°
Arg. of periapsis
123.5615°
True anomaly
236.54028°
Mean anomaly
236.5481°
Eccentric anomaly
236.54419°
Mean motion
3.924 °/min
Orbital period
91.74 mins
BSTAR
0.000040546
Loading maneuver chart data...
Computing Atmospheric mass density...
Loading historical data...
Loading historical data...
Loading historical data...
Loading historical data...
Loading historical data...
Loading historical data...
Loading historical data...

Documentation

Showing up to 5 results
|